AXY751R LIRA-LTBA

Flight info

Callsign AXY751R
Flight time 1h 51m
Altitude 38000
Route LAT DCT FGG/N0449F370 DCT TRN DCT FSK DCT CEK DCT IST
Aircraft E35L/M-SABDFGRW/S

Departure

Time 2026-05-09 07:34
Airport Ciampino–G. B. Pastine International Airport (LIRA)

Arrival

Time 2026-05-09 09:25
Airport İstanbul Atatürk Airport (LTBA)
Time Latitude Longitude Altitude Speed Heading
2026-05-09 07:09 41.79199 12.59694 416 ft 0 kts 62°
2026-05-09 07:18 41.79200 12.59695 416 ft 0 kts 62°
2026-05-09 07:19 41.79198 12.59690 416 ft 2 kts 62°
2026-05-09 07:19 41.79190 12.59672 416 ft 2 kts 62°
2026-05-09 07:19 41.79186 12.59661 416 ft 1 kts 58°
2026-05-09 07:20 41.79176 12.59652 416 ft 1 kts 358°
2026-05-09 07:20 41.79167 12.59656 416 ft 1 kts 333°
2026-05-09 07:20 41.79166 12.59656 416 ft 0 kts 333°
2026-05-09 07:27 41.79167 12.59656 416 ft 1 kts 333°
2026-05-09 07:27 41.79190 12.59641 416 ft 4 kts 336°
2026-05-09 07:27 41.79198 12.59637 416 ft 2 kts 335°
2026-05-09 07:27 41.79228 12.59631 415 ft 6 kts 24°
2026-05-09 07:28 41.79255 12.59693 416 ft 8 kts 63°
2026-05-09 07:28 41.79313 12.59710 416 ft 12 kts 332°
2026-05-09 07:28 41.79408 12.59645 412 ft 18 kts 334°
2026-05-09 07:28 41.79540 12.59555 406 ft 22 kts 334°
2026-05-09 07:29 41.79681 12.59457 400 ft 25 kts 333°
2026-05-09 07:29 41.79837 12.59349 392 ft 22 kts 332°
2026-05-09 07:29 41.79965 12.59260 386 ft 19 kts 333°
2026-05-09 07:29 41.80083 12.59178 380 ft 18 kts 333°
2026-05-09 07:30 41.80186 12.59109 375 ft 13 kts 334°
2026-05-09 07:30 41.80281 12.59045 371 ft 13 kts 332°
2026-05-09 07:30 41.80382 12.58973 368 ft 19 kts 333°
2026-05-09 07:30 41.80513 12.58883 363 ft 22 kts 333°
2026-05-09 07:31 41.80658 12.58784 358 ft 19 kts 332°
2026-05-09 07:31 41.80735 12.58779 357 ft 4 kts 63°
2026-05-09 07:31 41.80736 12.58783 357 ft 0 kts 64°
2026-05-09 07:33 41.80745 12.58806 357 ft 6 kts 64°
2026-05-09 07:33 41.80768 12.58913 358 ft 4 kts 164°
2026-05-09 07:33 41.80701 12.58955 359 ft 19 kts 152°
2026-05-09 07:34 41.80300 12.59233 375 ft 110 kts 153°
2026-05-09 07:34 41.79421 12.59828 523 ft 165 kts 154°
2026-05-09 07:34 41.78305 12.60523 1168 ft 190 kts 155°
2026-05-09 07:34 41.76984 12.60682 2089 ft 205 kts 195°
2026-05-09 07:35 41.75791 12.59591 3031 ft 224 kts 236°
2026-05-09 07:35 41.75143 12.57696 4040 ft 235 kts 250°
2026-05-09 07:35 41.74565 12.55653 5132 ft 241 kts 250°
2026-05-09 07:35 41.73970 12.53578 6245 ft 246 kts 250°
2026-05-09 07:36 41.73350 12.51469 7382 ft 248 kts 250°
2026-05-09 07:36 41.72494 12.49390 8158 ft 269 kts 229°
2026-05-09 07:36 41.70967 12.47859 9044 ft 282 kts 218°
2026-05-09 07:36 41.69423 12.46272 10036 ft 289 kts 218°
2026-05-09 07:37 41.67555 12.45192 10939 ft 303 kts 191°
2026-05-09 07:37 41.65422 12.45387 11800 ft 318 kts 164°
2026-05-09 07:37 41.63491 12.46871 12599 ft 332 kts 138°
2026-05-09 07:37 41.62140 12.49375 13362 ft 343 kts 112°
2026-05-09 07:38 41.61546 12.52468 14134 ft 351 kts 101°
2026-05-09 07:38 41.60960 12.55700 14909 ft 362 kts 103°
2026-05-09 07:38 41.60346 12.58980 15749 ft 369 kts 103°
2026-05-09 07:38 41.59721 12.62297 16557 ft 376 kts 103°
2026-05-09 07:39 41.59069 12.65747 17323 ft 384 kts 103°
2026-05-09 07:39 41.58410 12.69229 18138 ft 390 kts 103°
2026-05-09 07:39 41.57743 12.72751 18870 ft 398 kts 103°
2026-05-09 07:39 41.57057 12.76364 19664 ft 402 kts 103°
2026-05-09 07:40 41.56370 12.79973 20363 ft 409 kts 103°
2026-05-09 07:40 41.55659 12.83704 21061 ft 417 kts 103°
2026-05-09 07:40 41.54939 12.87477 21806 ft 422 kts 104°
2026-05-09 07:40 41.54238 12.91252 22500 ft 427 kts 100°
2026-05-09 07:41 41.54002 12.95234 23193 ft 431 kts 90°
2026-05-09 07:41 41.53876 12.99198 23884 ft 436 kts 90°
2026-05-09 07:41 41.53747 13.03248 24585 ft 441 kts 90°
2026-05-09 07:41 41.53614 13.07311 25261 ft 445 kts 90°
2026-05-09 07:42 41.53478 13.11468 25901 ft 450 kts 90°
2026-05-09 07:42 41.53341 13.15604 26743 ft 449 kts 90°
2026-05-09 07:42 41.53200 13.19781 27511 ft 451 kts 90°
2026-05-09 07:42 41.53059 13.23936 28295 ft 451 kts 90°
2026-05-09 07:43 41.52916 13.28091 29099 ft 450 kts 90°
2026-05-09 07:43 41.52772 13.32231 29837 ft 450 kts 90°
2026-05-09 07:43 41.52628 13.36349 30608 ft 450 kts 89°
2026-05-09 07:43 41.52478 13.40592 31334 ft 452 kts 90°
2026-05-09 07:44 41.52327 13.44821 32050 ft 453 kts 90°
2026-05-09 07:44 41.52175 13.49027 32748 ft 455 kts 90°
2026-05-09 07:44 41.52023 13.53211 33436 ft 456 kts 90°
2026-05-09 07:44 41.51866 13.57452 34137 ft 457 kts 90°
2026-05-09 07:45 41.51709 13.61668 34953 ft 454 kts 90°
2026-05-09 07:45 41.51553 13.65814 35757 ft 452 kts 91°
2026-05-09 07:45 41.51394 13.69995 36491 ft 451 kts 91°
2026-05-09 07:45 41.51236 13.74137 37170 ft 450 kts 90°
2026-05-09 07:46 41.51073 13.78308 37929 ft 447 kts 90°
2026-05-09 07:46 41.50914 13.82438 38087 ft 460 kts 90°
2026-05-09 07:46 41.50742 13.86782 38129 ft 472 kts 90°
2026-05-09 07:47 41.50388 13.95651 38128 ft 491 kts 90°
2026-05-09 07:47 41.50010 14.04908 38128 ft 509 kts 90°
2026-05-09 07:48 41.49611 14.14492 38138 ft 525 kts 90°
2026-05-09 07:48 41.49192 14.24362 38128 ft 526 kts 90°
2026-05-09 07:48 41.48985 14.29137 38121 ft 515 kts 90°
2026-05-09 07:49 41.48781 14.33863 38126 ft 514 kts 90°
2026-05-09 07:49 41.48362 14.43353 38121 ft 515 kts 90°
2026-05-09 07:50 41.47932 14.52892 38113 ft 517 kts 90°
2026-05-09 07:50 41.47499 14.62383 38118 ft 518 kts 90°
2026-05-09 07:51 41.47052 14.71949 38106 ft 518 kts 90°
2026-05-09 07:51 41.46598 14.81526 38103 ft 519 kts 90°
2026-05-09 07:52 41.46137 14.91077 38096 ft 519 kts 90°
2026-05-09 07:52 41.45666 15.00659 38096 ft 519 kts 90°
2026-05-09 07:53 41.45186 15.10257 38091 ft 520 kts 90°
2026-05-09 07:53 41.44703 15.19788 38097 ft 520 kts 90°
2026-05-09 07:54 41.44204 15.29434 38098 ft 520 kts 90°
2026-05-09 07:54 41.43700 15.39055 38096 ft 520 kts 90°
2026-05-09 07:55 41.43189 15.48649 38101 ft 520 kts 90°
2026-05-09 07:55 41.42921 15.58309 38096 ft 516 kts 82°
2026-05-09 07:56 41.43154 15.67931 38090 ft 518 kts 85°
2026-05-09 07:56 41.43222 15.72674 37891 ft 517 kts 85°
2026-05-09 07:56 41.43284 15.77444 38106 ft 513 kts 85°
2026-05-09 07:57 41.43402 15.86953 38023 ft 514 kts 85°
2026-05-09 07:57 41.43513 15.96465 38094 ft 512 kts 85°
2026-05-09 07:58 41.43616 16.05908 38085 ft 512 kts 85°
2026-05-09 07:58 41.43709 16.15360 38080 ft 512 kts 85°
2026-05-09 07:59 41.43795 16.24807 38080 ft 512 kts 85°
2026-05-09 07:59 41.43875 16.34315 38080 ft 512 kts 85°
2026-05-09 08:00 41.43945 16.43718 38081 ft 512 kts 85°
2026-05-09 08:00 41.44009 16.53194 38082 ft 512 kts 85°
2026-05-09 08:01 41.44064 16.62636 38083 ft 512 kts 85°
2026-05-09 08:01 41.44112 16.72140 38068 ft 511 kts 86°
2026-05-09 08:02 41.44152 16.81566 38065 ft 510 kts 86°
2026-05-09 08:02 41.44184 16.90947 38072 ft 509 kts 86°
2026-05-09 08:03 41.44208 17.00326 38074 ft 508 kts 86°
2026-05-09 08:03 41.44225 17.09687 38075 ft 508 kts 86°
2026-05-09 08:04 41.44234 17.19076 38080 ft 507 kts 86°
2026-05-09 08:04 41.44235 17.28400 38076 ft 507 kts 86°
2026-05-09 08:05 41.44230 17.37799 38070 ft 506 kts 86°
2026-05-09 08:05 41.44216 17.47105 38066 ft 506 kts 86°
2026-05-09 08:06 41.44195 17.56453 38067 ft 506 kts 86°
2026-05-09 08:06 41.44166 17.65809 38066 ft 505 kts 87°
2026-05-09 08:07 41.44130 17.75110 38054 ft 504 kts 87°
2026-05-09 08:07 41.44086 17.84417 38055 ft 503 kts 87°
2026-05-09 08:08 41.44035 17.93700 38059 ft 502 kts 87°
2026-05-09 08:08 41.43977 18.02931 38061 ft 501 kts 87°
2026-05-09 08:09 41.43912 18.12152 38057 ft 500 kts 88°
2026-05-09 08:09 41.43839 18.21431 38055 ft 499 kts 88°
2026-05-09 08:10 41.43758 18.30636 38062 ft 499 kts 88°
2026-05-09 08:10 41.43671 18.39817 38056 ft 498 kts 88°
2026-05-09 08:11 41.43576 18.49015 38050 ft 497 kts 88°
2026-05-09 08:11 41.43476 18.58137 38056 ft 497 kts 88°
2026-05-09 08:12 41.43309 18.71955 38057 ft 496 kts 89°
2026-05-09 08:12 41.43189 18.81116 38046 ft 495 kts 89°
2026-05-09 08:13 41.43062 18.90246 38048 ft 494 kts 89°
2026-05-09 08:13 41.42929 18.99369 38046 ft 493 kts 89°
2026-05-09 08:14 41.42788 19.08464 38049 ft 493 kts 89°
2026-05-09 08:14 41.42641 19.17524 38051 ft 492 kts 89°
2026-05-09 08:15 41.42487 19.26596 38054 ft 491 kts 89°
2026-05-09 08:15 41.42325 19.35678 38052 ft 491 kts 89°
2026-05-09 08:16 41.42156 19.44752 38057 ft 490 kts 89°
2026-05-09 08:16 41.41980 19.53836 38058 ft 489 kts 89°
2026-05-09 08:17 41.41798 19.62878 38062 ft 489 kts 89°
2026-05-09 08:17 41.41559 19.72006 38058 ft 489 kts 94°
2026-05-09 08:18 41.40851 19.80969 38062 ft 488 kts 95°
2026-05-09 08:18 41.40102 19.89952 38070 ft 487 kts 95°
2026-05-09 08:19 41.39348 19.98885 38066 ft 487 kts 95°
2026-05-09 08:19 41.38583 20.07871 38058 ft 486 kts 95°
2026-05-09 08:20 41.37814 20.16807 38051 ft 486 kts 95°
2026-05-09 08:20 41.37039 20.25745 38055 ft 485 kts 95°
2026-05-09 08:21 41.36264 20.34596 38058 ft 485 kts 95°
2026-05-09 08:21 41.35474 20.43538 38061 ft 484 kts 95°
2026-05-09 08:22 41.34687 20.52359 38075 ft 483 kts 95°
2026-05-09 08:22 41.33888 20.61254 38080 ft 483 kts 95°
2026-05-09 08:23 41.33078 20.70177 38072 ft 483 kts 96°
2026-05-09 08:23 41.32269 20.79015 38071 ft 482 kts 95°
2026-05-09 08:24 41.31455 20.87838 38072 ft 482 kts 95°
2026-05-09 08:24 41.30637 20.96632 38080 ft 481 kts 96°
2026-05-09 08:25 41.29808 21.05458 38086 ft 480 kts 96°
2026-05-09 08:25 41.28974 21.14272 38078 ft 480 kts 96°
2026-05-09 08:26 41.28135 21.23059 38075 ft 480 kts 96°
2026-05-09 08:26 41.27285 21.31897 38073 ft 480 kts 96°
2026-05-09 08:27 41.26434 21.40666 38074 ft 480 kts 96°
2026-05-09 08:27 41.25571 21.49486 38060 ft 480 kts 96°
2026-05-09 08:28 41.24707 21.58256 38065 ft 480 kts 96°
2026-05-09 08:28 41.23830 21.67072 38061 ft 480 kts 96°
2026-05-09 08:29 41.22942 21.75941 38069 ft 479 kts 96°
2026-05-09 08:29 41.22056 21.84720 38071 ft 479 kts 96°
2026-05-09 08:30 41.21167 21.93457 38064 ft 479 kts 96°
2026-05-09 08:30 41.20267 22.02230 38058 ft 479 kts 96°
2026-05-09 08:31 41.19364 22.10974 38053 ft 478 kts 97°
2026-05-09 08:31 41.18449 22.19765 38062 ft 478 kts 97°
2026-05-09 08:32 41.17532 22.28500 38065 ft 478 kts 97°
2026-05-09 08:33 41.16146 22.41595 38051 ft 478 kts 97°
2026-05-09 08:33 41.15218 22.50286 38039 ft 478 kts 97°
2026-05-09 08:34 41.14274 22.59054 38038 ft 478 kts 97°
2026-05-09 08:34 41.13327 22.67791 38036 ft 478 kts 98°
2026-05-09 08:35 41.12371 22.76535 38038 ft 477 kts 98°
2026-05-09 08:35 41.11415 22.85228 38039 ft 477 kts 98°
2026-05-09 08:36 41.10445 22.93985 38035 ft 476 kts 98°
2026-05-09 08:36 41.09783 23.02680 38036 ft 474 kts 88°
2026-05-09 08:37 41.09833 23.11445 38035 ft 474 kts 89°
2026-05-09 08:37 41.09808 23.20134 38035 ft 474 kts 89°
2026-05-09 08:38 41.09771 23.28867 38036 ft 473 kts 89°
2026-05-09 08:38 41.09727 23.37540 38035 ft 473 kts 89°
2026-05-09 08:39 41.09676 23.46260 38033 ft 473 kts 90°
2026-05-09 08:39 41.09619 23.54973 38028 ft 473 kts 89°
2026-05-09 08:40 41.09556 23.63701 38028 ft 473 kts 90°
2026-05-09 08:40 41.09486 23.72407 38022 ft 473 kts 90°
2026-05-09 08:41 41.09409 23.81090 38022 ft 473 kts 90°
2026-05-09 08:41 41.09325 23.89819 38020 ft 473 kts 90°
2026-05-09 08:42 41.09236 23.98495 38020 ft 472 kts 90°
2026-05-09 08:42 41.09140 24.07200 38024 ft 472 kts 90°
2026-05-09 08:43 41.09037 24.15874 38024 ft 472 kts 90°
2026-05-09 08:43 41.08929 24.24514 38027 ft 472 kts 90°
2026-05-09 08:44 41.08813 24.33209 38029 ft 472 kts 90°
2026-05-09 08:44 41.08690 24.41918 38025 ft 472 kts 90°
2026-05-09 08:45 41.08562 24.50590 38037 ft 471 kts 90°
2026-05-09 08:45 41.08427 24.59224 38028 ft 472 kts 90°
2026-05-09 08:46 41.08285 24.67939 38033 ft 472 kts 91°
2026-05-09 08:46 41.08137 24.76636 38027 ft 472 kts 91°
2026-05-09 08:47 41.07981 24.85355 38025 ft 472 kts 91°
2026-05-09 08:47 41.07819 24.94072 38031 ft 471 kts 91°
2026-05-09 08:48 41.07652 25.02715 38038 ft 471 kts 91°
2026-05-09 08:48 41.07478 25.11373 38023 ft 472 kts 91°
2026-05-09 08:49 41.07297 25.20065 38030 ft 472 kts 91°
2026-05-09 08:49 41.07109 25.28758 38036 ft 472 kts 91°
2026-05-09 08:50 41.06916 25.37440 38021 ft 472 kts 91°
2026-05-09 08:50 41.06714 25.46157 38023 ft 473 kts 91°
2026-05-09 08:51 41.06508 25.54813 38021 ft 473 kts 91°
2026-05-09 08:51 41.06293 25.63555 38027 ft 473 kts 91°
2026-05-09 08:52 41.06071 25.72302 38026 ft 473 kts 92°
2026-05-09 08:52 41.05844 25.80999 38027 ft 474 kts 92°
2026-05-09 08:53 41.05611 25.89652 38025 ft 474 kts 92°
2026-05-09 08:53 41.05370 25.98380 38026 ft 474 kts 92°
2026-05-09 08:54 41.05124 26.07073 38021 ft 474 kts 92°
2026-05-09 08:54 41.04871 26.15754 37679 ft 466 kts 92°
2026-05-09 08:54 41.04745 26.19992 37154 ft 454 kts 92°
2026-05-09 08:55 41.04622 26.24086 36569 ft 444 kts 92°
2026-05-09 08:55 41.04499 26.28131 36018 ft 435 kts 92°
2026-05-09 08:55 41.04378 26.32085 35568 ft 426 kts 92°
2026-05-09 08:55 41.04257 26.35973 35120 ft 419 kts 92°
2026-05-09 08:56 41.04137 26.39790 34678 ft 412 kts 92°
2026-05-09 08:56 41.04019 26.43517 34220 ft 406 kts 92°
2026-05-09 08:56 41.03900 26.47208 33662 ft 400 kts 92°
2026-05-09 08:56 41.03782 26.50842 33107 ft 395 kts 92°
2026-05-09 08:57 41.03664 26.54473 32557 ft 398 kts 91°
2026-05-09 08:57 41.03533 26.58116 32017 ft 400 kts 94°
2026-05-09 08:57 41.03067 26.61765 31650 ft 396 kts 105°
2026-05-09 08:57 41.02208 26.65174 31393 ft 390 kts 111°
2026-05-09 08:58 41.01242 26.68552 31112 ft 386 kts 112°
2026-05-09 08:58 41.00280 26.71854 30840 ft 384 kts 112°
2026-05-09 08:58 40.99318 26.75131 30567 ft 381 kts 112°
2026-05-09 08:58 40.98353 26.78407 30296 ft 378 kts 112°
2026-05-09 08:59 40.97406 26.81616 29869 ft 381 kts 112°
2026-05-09 08:59 40.96431 26.84911 29355 ft 386 kts 112°
2026-05-09 08:59 40.95459 26.88196 28848 ft 389 kts 112°
2026-05-09 08:59 40.94469 26.91536 28372 ft 391 kts 112°
2026-05-09 09:00 40.93565 26.94927 28047 ft 389 kts 105°
2026-05-09 09:00 40.93105 26.98405 27672 ft 388 kts 94°
2026-05-09 09:00 40.93099 27.01969 27292 ft 386 kts 83°
2026-05-09 09:00 40.93559 27.05433 26916 ft 384 kts 75°
2026-05-09 09:01 40.94105 27.08870 26537 ft 383 kts 77°
2026-05-09 09:01 40.94604 27.12325 26157 ft 383 kts 78°
2026-05-09 09:01 40.95103 27.15763 25774 ft 382 kts 79°
2026-05-09 09:01 40.95318 27.19232 25398 ft 382 kts 90°
2026-05-09 09:02 40.95036 27.22768 25016 ft 381 kts 102°
2026-05-09 09:02 40.94275 27.26091 24637 ft 379 kts 114°
2026-05-09 09:02 40.93139 27.29197 24264 ft 377 kts 114°
2026-05-09 09:02 40.92171 27.32400 23885 ft 376 kts 111°
2026-05-09 09:03 40.91283 27.35616 23503 ft 375 kts 110°
2026-05-09 09:03 40.90411 27.38884 23122 ft 374 kts 110°
2026-05-09 09:03 40.89554 27.42132 22753 ft 373 kts 110°
2026-05-09 09:03 40.88709 27.45345 22377 ft 372 kts 110°
2026-05-09 09:04 40.87857 27.48583 21995 ft 370 kts 110°
2026-05-09 09:04 40.87015 27.51787 21621 ft 369 kts 110°
2026-05-09 09:04 40.86185 27.54938 21249 ft 368 kts 110°
2026-05-09 09:04 40.85350 27.58140 20873 ft 366 kts 107°
2026-05-09 09:05 40.85076 27.61436 20592 ft 362 kts 83°
2026-05-09 09:05 40.85559 27.64641 20487 ft 352 kts 76°
2026-05-09 09:05 40.86084 27.67744 20364 ft 345 kts 77°
2026-05-09 09:05 40.86610 27.70841 20238 ft 340 kts 77°
2026-05-09 09:06 40.87122 27.73848 20100 ft 337 kts 77°
2026-05-09 09:06 40.87637 27.76871 19987 ft 334 kts 77°
2026-05-09 09:06 40.88139 27.79834 19856 ft 331 kts 77°
2026-05-09 09:06 40.88644 27.82811 19725 ft 329 kts 77°
2026-05-09 09:07 40.89138 27.85722 19609 ft 327 kts 77°
2026-05-09 09:07 40.89631 27.88641 19485 ft 325 kts 77°
2026-05-09 09:07 40.90120 27.91536 19350 ft 323 kts 77°
2026-05-09 09:07 40.90595 27.94409 19244 ft 321 kts 77°
2026-05-09 09:08 40.91062 27.97260 19111 ft 319 kts 77°
2026-05-09 09:08 40.91531 28.00123 18964 ft 318 kts 77°
2026-05-09 09:08 40.91998 28.02983 18863 ft 317 kts 77°
2026-05-09 09:08 40.92461 28.05826 18740 ft 315 kts 78°
2026-05-09 09:09 40.92918 28.08629 18627 ft 314 kts 77°
2026-05-09 09:09 40.93374 28.11436 18509 ft 313 kts 78°
2026-05-09 09:09 40.93826 28.14223 18388 ft 311 kts 78°
2026-05-09 09:09 40.94280 28.17026 18260 ft 310 kts 78°
2026-05-09 09:10 40.94729 28.19805 18128 ft 309 kts 78°
2026-05-09 09:10 40.95174 28.22567 18028 ft 309 kts 78°
2026-05-09 09:10 40.95621 28.25337 17903 ft 308 kts 77°
2026-05-09 09:10 40.96067 28.28108 17777 ft 307 kts 78°
2026-05-09 09:11 40.96512 28.30877 17671 ft 315 kts 78°
2026-05-09 09:11 40.96974 28.33758 17545 ft 325 kts 78°
2026-05-09 09:11 40.97457 28.36776 17304 ft 338 kts 78°
2026-05-09 09:11 40.97946 28.39834 17060 ft 349 kts 78°
2026-05-09 09:12 40.98457 28.43038 16836 ft 358 kts 78°
2026-05-09 09:12 40.98971 28.46264 16592 ft 366 kts 78°
2026-05-09 09:12 40.99500 28.49590 16350 ft 372 kts 78°
2026-05-09 09:12 41.00013 28.52830 16004 ft 341 kts 78°
2026-05-09 09:13 41.00475 28.55745 15788 ft 317 kts 78°
2026-05-09 09:13 41.00925 28.58591 15456 ft 312 kts 78°
2026-05-09 09:13 41.01363 28.61366 15090 ft 309 kts 78°
2026-05-09 09:13 41.01803 28.64162 14719 ft 305 kts 78°
2026-05-09 09:14 41.02230 28.66877 14350 ft 303 kts 79°
2026-05-09 09:14 41.02661 28.69627 13974 ft 301 kts 79°
2026-05-09 09:14 41.03082 28.72307 13604 ft 299 kts 78°
2026-05-09 09:14 41.03495 28.74981 13236 ft 299 kts 79°
2026-05-09 09:15 41.03912 28.77733 12868 ft 308 kts 79°
2026-05-09 09:15 41.04334 28.80524 12383 ft 309 kts 79°
2026-05-09 09:15 41.04757 28.83321 11890 ft 310 kts 79°
2026-05-09 09:15 41.05180 28.86116 11395 ft 310 kts 79°
2026-05-09 09:16 41.05539 28.88891 10841 ft 300 kts 90°
2026-05-09 09:16 41.04281 28.93664 9891 ft 266 kts 123°
2026-05-09 09:16 41.03348 28.95762 9454 ft 269 kts 124°
2026-05-09 09:17 41.02380 28.97892 8960 ft 274 kts 124°
2026-05-09 09:17 41.01384 29.00074 8467 ft 278 kts 124°
2026-05-09 09:17 41.00383 29.02258 7988 ft 280 kts 124°
2026-05-09 09:17 40.99361 29.04491 7492 ft 282 kts 124°
2026-05-09 09:18 40.98706 29.06949 6993 ft 290 kts 98°
2026-05-09 09:18 40.98975 29.09586 6516 ft 295 kts 70°
2026-05-09 09:18 41.00050 29.11865 6054 ft 297 kts 54°
2026-05-09 09:18 41.01524 29.13760 5552 ft 297 kts 30°
2026-05-09 09:19 41.03464 29.14563 5066 ft 294 kts
2026-05-09 09:19 41.05431 29.14145 4682 ft 284 kts 336°
2026-05-09 09:19 41.07246 29.13198 4504 ft 273 kts 335°
2026-05-09 09:19 41.08963 29.12178 4285 ft 262 kts 322°
2026-05-09 09:20 41.10094 29.10433 4050 ft 248 kts 290°
2026-05-09 09:20 41.10311 29.08246 3807 ft 235 kts 257°
2026-05-09 09:20 41.09581 29.06403 3577 ft 227 kts 223°
2026-05-09 09:20 41.08323 29.05199 3493 ft 216 kts 220°
2026-05-09 09:21 41.07333 29.03763 3489 ft 209 kts 230°
2026-05-09 09:21 41.06486 29.02227 3434 ft 206 kts 234°
2026-05-09 09:21 41.05698 29.00638 3202 ft 203 kts 236°
2026-05-09 09:21 41.04956 28.99073 2911 ft 199 kts 236°
2026-05-09 09:22 41.04237 28.97532 2638 ft 195 kts 237°
2026-05-09 09:22 41.03538 28.96026 2365 ft 192 kts 237°
2026-05-09 09:22 41.02875 28.94593 2119 ft 167 kts 237°
2026-05-09 09:22 41.02292 28.93333 1869 ft 155 kts 237°
2026-05-09 09:23 41.01745 28.92152 1650 ft 150 kts 237°
2026-05-09 09:23 41.01202 28.90982 1440 ft 148 kts 237°
2026-05-09 09:23 41.00679 28.89853 1230 ft 135 kts 236°
2026-05-09 09:23 41.00218 28.88858 1049 ft 126 kts 236°
2026-05-09 09:24 40.99749 28.87859 885 ft 128 kts 236°
2026-05-09 09:24 40.99288 28.86862 719 ft 126 kts 236°
2026-05-09 09:24 40.98824 28.85870 545 ft 127 kts 235°
2026-05-09 09:24 40.98367 28.84878 350 ft 128 kts 236°
2026-05-09 09:25 40.97887 28.83845 178 ft 128 kts 235°
2026-05-09 09:25 40.97443 28.82896 92 ft 110 kts 237°
2026-05-09 09:25 40.97121 28.82201 89 ft 66 kts 239°
2026-05-09 09:25 40.96995 28.81805 84 ft 35 kts 268°
2026-05-09 09:26 40.96989 28.81613 85 ft 18 kts 270°
2026-05-09 09:26 40.96996 28.81479 86 ft 10 kts 299°
2026-05-09 09:26 40.97070 28.81451 87 ft 13 kts 351°
2026-05-09 09:26 40.97176 28.81438 90 ft 16 kts 358°
2026-05-09 09:27 40.97298 28.81436 95 ft 18 kts
2026-05-09 09:27 40.97426 28.81433 100 ft 19 kts 359°
2026-05-09 09:27 40.97562 28.81402 104 ft 21 kts 346°
2026-05-09 09:27 40.97710 28.81393 111 ft 21 kts
2026-05-09 09:28 40.97861 28.81411 117 ft 22 kts
2026-05-09 09:28 40.98024 28.81409 123 ft 23 kts 358°
2026-05-09 09:28 40.98193 28.81403 128 ft 25 kts 358°
2026-05-09 09:28 40.98373 28.81398 133 ft 26 kts 359°
2026-05-09 09:29 40.98567 28.81392 137 ft 28 kts 358°
2026-05-09 09:29 40.98774 28.81383 139 ft 31 kts 358°
2026-05-09 09:29 40.98971 28.81375 141 ft 19 kts 359°
2026-05-09 09:29 40.99083 28.81362 140 ft 13 kts 329°
2026-05-09 09:30 40.99102 28.81227 141 ft 17 kts 273°
2026-05-09 09:30 40.99188 28.81164 141 ft 17 kts 359°
2026-05-09 09:30 40.99339 28.81157 137 ft 24 kts 358°
2026-05-09 09:30 40.99503 28.81124 142 ft 23 kts 326°
2026-05-09 09:31 40.99625 28.81006 150 ft 18 kts 300°
2026-05-09 09:31 40.99631 28.80851 160 ft 15 kts 268°
2026-05-09 09:31 40.99628 28.80719 169 ft 13 kts 268°
2026-05-09 09:32 40.99625 28.80444 178 ft 15 kts 268°
2026-05-09 09:32 40.99622 28.80301 183 ft 14 kts 270°
2026-05-09 09:32 40.99606 28.80232 184 ft 8 kts 213°
2026-05-09 09:32 40.99566 28.80234 184 ft 2 kts 179°
2026-05-09 09:33 40.99531 28.80239 184 ft 3 kts 139°
2026-05-09 09:33 40.99532 28.80286 183 ft 0 kts 89°